Language: 


Des rapports , des résumés tant et plus, au choix de chacun....


Données statistiques de la station
Quotidien Rapport Juin 24, 2017 Unités:  Anglais    Métrique   les deux
« Précédent Jour
Suivant Jour »
Quotidien Hebdomadaire Mensuel Annuel Actuel
  Haut: Bas: Moyen:
Température: 69.4 °F 57.6 °F 63.9 °F
Pt de rosée: 62.6 °F 55.4 °F 59 °F
Humidité: 93 % 76 % 85 %
Vitesse du vent: 19.7 mph 0 mph 9.3 mph
Rafales: 23.3 mph - -
Vent:- - WSW
Pression: 30.1 in 29.9 in -
Précipitation: 0 in    
Historical Graphs
 
 
Données statistiques pour Juin 24, 2017
Heure Température Point de rosée Pression Vent Vitesse du vent Refales Humidité Pluie (taux horaire)
00:01 60.1 °F 55.4 °F 30.1 in SW 6.5 mph 8.1 mph 84 % 0 in
00:06 60.1 °F 55.4 °F 30.1 in WSW 8.7 mph 8.7 mph 85 % 0 in
00:11 60.1 °F 55.4 °F 30.1 in WSW 5.8 mph 9.6 mph 85 % 0 in
00:16 59.9 °F 55.4 °F 30.1 in SW 5.4 mph 10.3 mph 86 % 0 in
00:21 59.7 °F 55.4 °F 30.1 in WSW 6.5 mph 10.3 mph 86 % 0 in
00:26 59.7 °F 55.4 °F 30.1 in WSW 6.3 mph 9.8 mph 87 % 0 in
00:31 59.7 °F 55.4 °F 30.1 in SW 6 mph 9.8 mph 86 % 0 in
00:36 59.5 °F 55.4 °F 30.1 in SW 7.4 mph 7.4 mph 87 % 0 in
00:41 59.4 °F 55.4 °F 30.1 in WSW 5.6 mph 8.7 mph 87 % 0 in
00:46 59.4 °F 55.4 °F 30.1 in SW 7.8 mph 8.7 mph 88 % 0 in
00:51 59.4 °F 55.4 °F 30.1 in SW 4.3 mph 8.5 mph 88 % 0 in
00:56 59.4 °F 55.4 °F 30.1 in West 5.4 mph 8.9 mph 88 % 0 in
01:01 59.2 °F 55.4 °F 30 in SW 5.6 mph 8.9 mph 89 % 0 in
01:06 59.2 °F 55.4 °F 30 in SSW 2.2 mph 8.5 mph 89 % 0 in
01:11 59.2 °F 55.4 °F 30 in SW 5.6 mph 9.6 mph 89 % 0 in
01:16 59.2 °F 55.4 °F 30 in WSW 4 mph 9.6 mph 89 % 0 in
01:21 59 °F 55.4 °F 30 in SW 6.5 mph 9.4 mph 90 % 0 in
01:26 59 °F 55.4 °F 30 in SSW 4 mph 9.4 mph 90 % 0 in
01:31 58.8 °F 55.4 °F 30 in SSW 5.8 mph 8.7 mph 90 % 0 in
01:36 58.8 °F 55.4 °F 30 in SW 6.5 mph 9.6 mph 90 % 0 in
01:41 58.8 °F 57.2 °F 30 in SSW 5.8 mph 9.6 mph 91 % 0 in
01:46 58.8 °F 57.2 °F 30 in SW 6.5 mph 9.2 mph 91 % 0 in
01:51 58.8 °F 57.2 °F 30 in SSW 8.5 mph 8.7 mph 91 % 0 in
01:53 58.8 °F 57.2 °F 30 in WSW 5.4 mph 8.7 mph 91 % 0 in
01:58 58.6 °F 55.4 °F 30 in West 5.6 mph 9.8 mph 91 % 0 in
02:03 58.5 °F 55.4 °F 30 in WSW 7.4 mph 9.8 mph 91 % 0 in
02:08 58.5 °F 55.4 °F 30 in SSW 6 mph 8.1 mph 91 % 0 in
02:13 58.3 °F 55.4 °F 30 in SW 5.6 mph 9.6 mph 91 % 0 in
02:18 58.3 °F 55.4 °F 30 in SW 5.4 mph 9.6 mph 92 % 0 in
02:23 58.3 °F 55.4 °F 30 in SSW 8.7 mph 10.7 mph 92 % 0 in
02:28 58.1 °F 55.4 °F 30 in WSW 4.9 mph 10.7 mph 92 % 0 in
02:33 58.1 °F 55.4 °F 30 in SW 4.3 mph 8.7 mph 92 % 0 in
02:38 57.9 °F 55.4 °F 30 in SW 4 mph 6.5 mph 92 % 0 in
02:43 57.9 °F 55.4 °F 30 in WSW 4 mph 7.4 mph 92 % 0 in
02:48 57.7 °F 55.4 °F 30 in WSW 4 mph 7.4 mph 92 % 0 in
02:53 57.7 °F 55.4 °F 30 in SSW 7.2 mph 7.2 mph 92 % 0 in
02:58 57.6 °F 55.4 °F 30 in WSW 4.9 mph 7.2 mph 92 % 0 in
03:03 57.6 °F 55.4 °F 30 in SW 2.5 mph 7.8 mph 93 % 0 in
03:08 57.7 °F 55.4 °F 30 in SSW 3.6 mph 7.8 mph 93 % 0 in
03:13 57.9 °F 55.4 °F 30 in SW 4.3 mph 7.4 mph 93 % 0 in
03:18 58.1 °F 57.2 °F 30 in Calm   7.4 mph 93 % 0 in
03:23 58.3 °F 57.2 °F 30 in West 5.6 mph 7.4 mph 93 % 0 in
03:28 58.3 °F 57.2 °F 30 in SW 5.4 mph 7.8 mph 93 % 0 in
03:33 58.5 °F 57.2 °F 30 in Calm   7.8 mph 93 % 0 in
03:38 58.5 °F 57.2 °F 30 in WSW 3.6 mph 6 mph 93 % 0 in
03:43 58.5 °F 57.2 °F 30 in WSW 3.6 mph 5.8 mph 93 % 0 in
03:48 58.6 °F 57.2 °F 30 in SSW 3.4 mph 4.9 mph 93 % 0 in
03:53 58.6 °F 57.2 °F 30 in SSW 2.9 mph 5.4 mph 93 % 0 in
03:58 58.8 °F 57.2 °F 30 in Calm   5.6 mph 93 % 0 in
04:03 58.8 °F 57.2 °F 30 in SSW 6.5 mph 7.8 mph 93 % 0 in
04:08 59 °F 57.2 °F 30 in SW 6.5 mph 7.8 mph 93 % 0 in
04:13 59.2 °F 57.2 °F 30 in SW 3.1 mph 6.5 mph 93 % 0 in
04:18 59.4 °F 57.2 °F 30 in WSW 4.3 mph 6.3 mph 93 % 0 in
04:23 59.4 °F 57.2 °F 30 in SSW 3.8 mph 6.3 mph 92 % 0 in
04:28 59.5 °F 57.2 °F 30 in Calm   6.3 mph 92 % 0 in
04:34 59.5 °F 57.2 °F 30 in Calm   6.3 mph 92 % 0 in
04:39 59.7 °F 57.2 °F 30 in SSW 4 mph 5.6 mph 92 % 0 in
04:44 59.9 °F 57.2 °F 30 in South 4.9 mph 6.3 mph 92 % 0 in
04:49 60.1 °F 57.2 °F 30 in SSW 0.9 mph 6.3 mph 92 % 0 in
04:54 60.1 °F 57.2 °F 30 in Calm   4.5 mph 92 % 0 in
04:59 60.1 °F 57.2 °F 30 in Calm   5.6 mph 92 % 0 in
05:04 60.1 °F 57.2 °F 30 in Calm   5.6 mph 92 % 0 in
05:09 60.1 °F 57.2 °F 30 in WSW 3.6 mph 5.4 mph 92 % 0 in
05:14 60.3 °F 57.2 °F 30 in WSW 2.2 mph 7.4 mph 92 % 0 in
05:19 60.3 °F 57.2 °F 30 in SW 6 mph 7.4 mph 91 % 0 in
05:24 60.3 °F 57.2 °F 30 in WSW 9.2 mph 10.7 mph 91 % 0 in
05:29 60.4 °F 57.2 °F 30 in West 8.7 mph 11.4 mph 91 % 0 in
05:34 60.6 °F 57.2 °F 30 in WSW 10.3 mph 12.8 mph 89 % 0 in
05:39 60.6 °F 57.2 °F 30 in WSW 7.8 mph 12.8 mph 89 % 0 in
05:44 60.8 °F 57.2 °F 30 in West 11 mph 13.2 mph 87 % 0 in
05:50 60.6 °F 57.2 °F 30 in WSW 8.1 mph 13.2 mph 86 % 0 in
05:55 60.6 °F 57.2 °F 30 in West 8.5 mph 13.2 mph 86 % 0 in
06:00 60.6 °F 57.2 °F 30 in WSW 10.7 mph 10.7 mph 86 % 0 in
06:05 60.6 °F 57.2 °F 30 in West 6.5 mph 10.7 mph 86 % 0 in
06:10 61 °F 57.2 °F 30 in West 7.4 mph 16.8 mph 85 % 0 in
06:15 61 °F 57.2 °F 30 in WSW 9.6 mph 16.8 mph 85 % 0 in
06:20 61.2 °F 57.2 °F 30 in WSW 7.8 mph 13 mph 85 % 0 in
06:25 61.5 °F 57.2 °F 30 in WSW 7.6 mph 14.1 mph 84 % 0 in
06:30 61.5 °F 57.2 °F 30 in West 5.6 mph 14.1 mph 85 % 0 in
06:35 61.7 °F 57.2 °F 30 in WSW 8.7 mph 11 mph 84 % 0 in
06:40 61.7 °F 57.2 °F 30 in WSW 9.8 mph 11 mph 84 % 0 in
06:45 61.7 °F 57.2 °F 30 in WSW 8.1 mph 11 mph 84 % 0 in
06:50 61.9 °F 57.2 °F 30 in West 7.6 mph 13 mph 84 % 0 in
06:55 61.9 °F 57.2 °F 30 in WSW 7.8 mph 13 mph 84 % 0 in
07:00 61.9 °F 57.2 °F 30 in WSW 7.8 mph 9.8 mph 84 % 0 in
07:05 61.9 °F 57.2 °F 30 in West 10.3 mph 10.3 mph 84 % 0 in
07:10 62.1 °F 57.2 °F 30 in WSW 14.8 mph 14.8 mph 84 % 0 in
07:15 62.1 °F 57.2 °F 30 in WSW 13.2 mph 14.8 mph 84 % 0 in
07:20 62.1 °F 57.2 °F 30 in WSW 9.4 mph 14.5 mph 84 % 0 in
07:25 62.2 °F 57.2 °F 30 in WSW 12.8 mph 19.5 mph 84 % 0 in
07:30 62.6 °F 57.2 °F 30 in West 7.8 mph 19.5 mph 84 % 0 in
07:35 63 °F 57.2 °F 30 in West 17 mph 17 mph 83 % 0 in
07:40 63.1 °F 57.2 °F 30 in WSW 10.7 mph 17.2 mph 83 % 0 in
07:45 63.1 °F 57.2 °F 30 in WSW 10.5 mph 17.2 mph 83 % 0 in
07:50 63.1 °F 57.2 °F 30 in WSW 8.1 mph 17.4 mph 82 % 0 in
07:55 63.5 °F 59 °F 30 in SSW 13.2 mph 17.4 mph 82 % 0 in
08:00 63.5 °F 57.2 °F 30 in West 14.5 mph 16.1 mph 81 % 0 in
08:05 63.7 °F 57.2 °F 30 in West 11 mph 19 mph 81 % 0 in
08:10 63.7 °F 57.2 °F 30 in WSW 12.8 mph 19.9 mph 80 % 0 in
08:15 63.7 °F 57.2 °F 30 in WSW 10.1 mph 19.9 mph 80 % 0 in
08:20 63.7 °F 57.2 °F 30 in West 12.5 mph 15.4 mph 80 % 0 in
08:26 63.7 °F 57.2 °F 30 in West 17.2 mph 23.3 mph 80 % 0 in
08:31 64 °F 57.2 °F 30 in West 12.5 mph 23.3 mph 79 % 0 in
08:36 64.2 °F 57.2 °F 30 in WSW 10.3 mph 22.1 mph 79 % 0 in
08:41 64.4 °F 57.2 °F 30 in West 13 mph 22.1 mph 78 % 0 in
08:46 64.4 °F 57.2 °F 30 in WSW 12.8 mph 22.1 mph 78 % 0 in
08:51 64.2 °F 57.2 °F 30 in West 12.1 mph 19.9 mph 78 % 0 in
08:57 64.4 °F 57.2 °F 30 in SSW 15.2 mph 19.5 mph 78 % 0 in
09:02 64.4 °F 57.2 °F 30 in West 9.8 mph 19.5 mph 78 % 0 in
09:06 64.2 °F 57.2 °F 30 in SW 10.7 mph 19.7 mph 79 % 0 in
09:12 64.2 °F 57.2 °F 30 in West 15.2 mph 19.7 mph 79 % 0 in
09:17 64.2 °F 59 °F 30 in West 17 mph 17.2 mph 80 % 0 in
09:22 64.2 °F 59 °F 30 in West 10.1 mph 17.2 mph 80 % 0 in
09:27 64.2 °F 59 °F 30 in West 8.5 mph 21.3 mph 80 % 0 in
09:32 64.2 °F 59 °F 30 in SW 8.7 mph 21.3 mph 81 % 0 in
09:37 64.2 °F 59 °F 30 in WSW 12.8 mph 17.4 mph 81 % 0 in
09:42 64 °F 57.2 °F 30 in WSW 10.3 mph 17.4 mph 81 % 0 in
09:47 64 °F 57.2 °F 30 in West 14.1 mph 17.7 mph 81 % 0 in
09:52 64 °F 57.2 °F 30 in WSW 9.8 mph 19.5 mph 81 % 0 in
09:57 64 °F 59 °F 30 in West 13 mph 19.5 mph 82 % 0 in
10:02 64.2 °F 59 °F 30 in WSW 12.3 mph 15.9 mph 82 % 0 in
10:07 64.8 °F 59 °F 30 in WSW 19.7 mph 19.9 mph 81 % 0 in
10:12 64.9 °F 59 °F 30 in WSW 9.6 mph 19.9 mph 80 % 0 in
10:17 64.9 °F 59 °F 30 in WSW 18.6 mph 18.6 mph 80 % 0 in
10:22 64.8 °F 59 °F 30 in WSW 15.7 mph 18.6 mph 80 % 0 in
10:27 64.8 °F 59 °F 30 in WSW 7.8 mph 15.7 mph 80 % 0 in
10:31 64.9 °F 59 °F 30 in WSW 5.8 mph 15.7 mph 80 % 0 in
10:36 65.1 °F 59 °F 30 in WSW 9.8 mph 13.2 mph 80 % 0 in
10:41 65.3 °F 59 °F 30 in WSW 10.1 mph 13.2 mph 80 % 0 in
10:42 65.3 °F 59 °F 30 in South 6 mph 13 mph 80 % 0 in
10:47 65.5 °F 59 °F 30 in West 6.5 mph 13 mph 80 % 0 in
10:52 65.5 °F 59 °F 30 in WSW 5.8 mph 12.8 mph 80 % 0 in
10:58 65.1 °F 59 °F 30 in WSW 12.8 mph 17.4 mph 80 % 0 in
11:03 64.9 °F 59 °F 30 in WSW 7.8 mph 17.4 mph 81 % 0 in
11:08 65.1 °F 59 °F 30 in West 13 mph 16.1 mph 81 % 0 in
11:13 64.9 °F 59 °F 30 in SW 7.6 mph 16.8 mph 81 % 0 in
11:18 64.9 °F 59 °F 30 in WSW 14.8 mph 16.8 mph 82 % 0 in
11:23 64.8 °F 59 °F 30 in West 10.3 mph 15.7 mph 83 % 0 in
11:28 64.4 °F 60.8 °F 30 in WSW 10.3 mph 15.7 mph 86 % 0 in
11:33 64.2 °F 60.8 °F 30 in WSW 7.6 mph 13.2 mph 87 % 0 in
11:38 64.2 °F 60.8 °F 30 in West 16.6 mph 16.6 mph 87 % 0 in
11:43 64.4 °F 60.8 °F 30 in West 10.5 mph 16.6 mph 86 % 0 in
11:48 64.4 °F 60.8 °F 30 in WSW 12.1 mph 15.4 mph 85 % 0 in
11:53 64.6 °F 59 °F 30 in West 15.4 mph 15.4 mph 84 % 0 in
11:58 64.9 °F 60.8 °F 30 in WSW 10.5 mph 15.4 mph 84 % 0 in
12:03 65.1 °F 60.8 °F 30 in SW 11 mph 16.1 mph 84 % 0 in
12:08 65.1 °F 59 °F 30 in WSW 11 mph 17.2 mph 83 % 0 in
12:13 65.1 °F 60.8 °F 30 in WSW 8.7 mph 17.2 mph 84 % 0 in
12:18 65.1 °F 60.8 °F 30 in WSW 8.7 mph 15.4 mph 84 % 0 in
12:23 65.3 °F 60.8 °F 30 in WSW 13 mph 15.2 mph 83 % 0 in
12:28 65.1 °F 59 °F 30 in WSW 13 mph 16.8 mph 83 % 0 in
12:33 65.3 °F 60.8 °F 30 in WSW 10.1 mph 16.8 mph 84 % 0 in
12:38 65.5 °F 60.8 °F 30 in West 12.3 mph 15.2 mph 83 % 0 in
12:43 65.5 °F 60.8 °F 30 in WSW 8.5 mph 17 mph 83 % 0 in
12:48 65.3 °F 60.8 °F 30 in West 12.1 mph 17 mph 83 % 0 in
12:53 65.3 °F 60.8 °F 30 in West 10.3 mph 18.1 mph 83 % 0 in
12:58 65.3 °F 60.8 °F 30 in WSW 12.3 mph 18.1 mph 83 % 0 in
13:03 65.5 °F 60.8 °F 30 in SW 8.1 mph 17.7 mph 83 % 0 in
13:08 65.5 °F 60.8 °F 30 in WSW 17 mph 17.7 mph 82 % 0 in
13:14 65.7 °F 60.8 °F 30 in WSW 10.3 mph 17.7 mph 82 % 0 in
13:19 65.8 °F 60.8 °F 30 in WSW 12.5 mph 19.7 mph 82 % 0 in
13:24 66 °F 60.8 °F 30 in WSW 7.6 mph 19.7 mph 82 % 0 in
13:29 66.4 °F 60.8 °F 30 in SSW 12.1 mph 18.1 mph 81 % 0 in
13:34 66.6 °F 60.8 °F 30 in West 13.6 mph 16.1 mph 81 % 0 in
13:39 66.7 °F 60.8 °F 30 in WSW 7.4 mph 17.2 mph 81 % 0 in
13:44 66.6 °F 60.8 °F 30 in West 10.3 mph 17.2 mph 81 % 0 in
13:49 66.4 °F 60.8 °F 30 in SW 10.1 mph 14.3 mph 81 % 0 in
13:54 66.2 °F 60.8 °F 30 in WSW 7.6 mph 14.3 mph 81 % 0 in
13:59 66.4 °F 60.8 °F 30 in SW 10.7 mph 14.5 mph 82 % 0 in
14:04 66.2 °F 60.8 °F 30 in WSW 10.7 mph 14.5 mph 82 % 0 in
14:09 66.4 °F 60.8 °F 30 in WSW 10.7 mph 13.4 mph 82 % 0 in
14:14 66.2 °F 60.8 °F 30 in WSW 10.3 mph 13.6 mph 82 % 0 in
14:19 66.6 °F 60.8 °F 30 in SSW 12.3 mph 13.6 mph 82 % 0 in
14:25 66.7 °F 60.8 °F 30 in SW 8.5 mph 13.4 mph 82 % 0 in
14:30 66.6 °F 60.8 °F 30 in West 10.5 mph 13.6 mph 82 % 0 in
14:35 66.4 °F 60.8 °F 30 in WSW 10.7 mph 13.6 mph 82 % 0 in
14:40 66.6 °F 60.8 °F 30 in West 8.7 mph 17.4 mph 82 % 0 in
14:45 66.7 °F 60.8 °F 30 in West 16.6 mph 17.4 mph 81 % 0 in
14:50 66.9 °F 60.8 °F 30 in West 8.7 mph 16.6 mph 81 % 0 in
14:55 66.9 °F 60.8 °F 30 in SW 10.3 mph 16.8 mph 81 % 0 in
15:00 66.9 °F 60.8 °F 30 in WSW 7.8 mph 16.8 mph 81 % 0 in
15:05 67.1 °F 60.8 °F 30 in WSW 10.3 mph 16.3 mph 80 % 0 in
15:10 67.1 °F 60.8 °F 30 in WSW 6 mph 15.2 mph 81 % 0 in
15:15 67.3 °F 60.8 °F 30 in WSW 10.3 mph 15.2 mph 81 % 0 in
15:20 67.3 °F 60.8 °F 30 in WSW 12.5 mph 14.3 mph 81 % 0 in
15:25 67.3 °F 60.8 °F 30 in West 10.7 mph 16.1 mph 81 % 0 in
15:30 67.3 °F 60.8 °F 30 in WSW 10.5 mph 16.1 mph 81 % 0 in
15:35 67.6 °F 60.8 °F 30 in WSW 7.6 mph 15.9 mph 80 % 0 in
15:40 68 °F 60.8 °F 30 in West 10.3 mph 15.2 mph 79 % 0 in
15:45 67.8 °F 60.8 °F 30 in West 12.3 mph 19 mph 79 % 0 in
15:50 68.2 °F 60.8 °F 29.9 in SW 7.8 mph 19 mph 79 % 0 in
15:55 68.4 °F 62.6 °F 29.9 in WSW 12.8 mph 14.5 mph 79 % 0 in
16:00 68.4 °F 62.6 °F 29.9 in WSW 8.5 mph 15.4 mph 79 % 0 in
16:05 68.4 °F 62.6 °F 29.9 in NW 10.5 mph 15.4 mph 79 % 0 in
16:10 68.4 °F 62.6 °F 29.9 in West 11.4 mph 17.2 mph 79 % 0 in
16:15 67.8 °F 60.8 °F 29.9 in WSW 9.2 mph 17.2 mph 78 % 0 in
16:20 68 °F 60.8 °F 30 in WSW 5.6 mph 17 mph 78 % 0 in
16:25 68.2 °F 60.8 °F 30 in SW 10.5 mph 15.4 mph 79 % 0 in
16:30 68.2 °F 60.8 °F 30 in West 18.1 mph 18.1 mph 78 % 0 in
16:35 68.4 °F 60.8 °F 30 in SW 15.2 mph 22.4 mph 78 % 0 in
16:41 68.5 °F 60.8 °F 30 in WSW 15.4 mph 22.4 mph 78 % 0 in
16:46 68.4 °F 60.8 °F 30 in West 13.9 mph 17.9 mph 77 % 0 in
16:51 68.4 °F 60.8 °F 30 in WSW 10.3 mph 17.7 mph 78 % 0 in
16:56 68.9 °F 62.6 °F 30 in SW 18.1 mph 18.1 mph 78 % 0 in
17:01 69.4 °F 62.6 °F 30 in WSW 14.1 mph 18.1 mph 77 % 0 in
17:06 69.3 °F 60.8 °F 30 in WSW 16.6 mph 19 mph 76 % 0 in
17:11 69.3 °F 60.8 °F 30 in West 13.9 mph 19 mph 76 % 0 in
17:16 68.7 °F 60.8 °F 30 in West 13 mph 18.8 mph 76 % 0 in
17:21 68.7 °F 60.8 °F 30 in West 19 mph 19 mph 76 % 0 in
17:26 68.2 °F 60.8 °F 30 in West 12.8 mph 19.9 mph 77 % 0 in
17:31 68.4 °F 60.8 °F 30 in West 12.5 mph 19.9 mph 78 % 0 in
17:36 68.5 °F 60.8 °F 30 in WSW 12.8 mph 15.4 mph 78 % 0 in
17:42 68.4 °F 60.8 °F 30 in SW 13.2 mph 18.1 mph 78 % 0 in
17:47 68.2 °F 60.8 °F 30 in WSW 12.8 mph 18.1 mph 78 % 0 in
17:52 68 °F 60.8 °F 30 in West 15.2 mph 18.6 mph 78 % 0 in
17:57 68 °F 60.8 °F 30 in WSW 14.8 mph 18.6 mph 78 % 0 in
18:02 68.5 °F 60.8 °F 30 in West 17.4 mph 18.6 mph 78 % 0 in
18:07 68.5 °F 60.8 °F 30 in SW 12.5 mph 19.9 mph 78 % 0 in
18:12 68.5 °F 60.8 °F 30 in WSW 12.1 mph 19.9 mph 78 % 0 in
18:13 68.5 °F 60.8 °F 30 in WSW 15.4 mph 19.9 mph 78 % 0 in
18:18 67.6 °F 60.8 °F 30 in West 10.1 mph 15.7 mph 79 % 0 in
18:23 67.6 °F 60.8 °F 30 in WSW 19.2 mph 19.2 mph 79 % 0 in
18:28 67.6 °F 60.8 °F 30 in WSW 10.5 mph 19.2 mph 79 % 0 in
18:33 67.6 °F 60.8 °F 30 in WSW 8.5 mph 19 mph 79 % 0 in
18:38 67.6 °F 60.8 °F 30 in WSW 14.8 mph 20.8 mph 79 % 0 in
18:43 67.6 °F 60.8 °F 30 in SW 8.1 mph 20.8 mph 79 % 0 in
18:48 67.6 °F 60.8 °F 30 in WSW 12.5 mph 17.2 mph 79 % 0 in
18:53 67.6 °F 60.8 °F 30 in WSW 12.5 mph 17.2 mph 79 % 0 in
18:58 67.6 °F 60.8 °F 30 in WSW 6.9 mph 14.8 mph 79 % 0 in
19:03 66.7 °F 60.8 °F 29.9 in SSW 8.5 mph 16.8 mph 82 % 0 in
19:08 67.1 °F 62.6 °F 29.9 in WSW 9.8 mph 16.8 mph 82 % 0 in
19:13 67.1 °F 62.6 °F 29.9 in West 5.4 mph 15.4 mph 82 % 0 in
19:19 66.9 °F 60.8 °F 30 in WSW 12.8 mph 15.4 mph 82 % 0 in
19:24 66.9 °F 60.8 °F 30 in SW 9.8 mph 17.4 mph 82 % 0 in
19:28 66.7 °F 60.8 °F 30 in SW 11 mph 17.4 mph 82 % 0 in
19:33 66.7 °F 60.8 °F 29.9 in SW 7.2 mph 17.4 mph 82 % 0 in
19:38 66.7 °F 60.8 °F 29.9 in WSW 10.3 mph 17.4 mph 82 % 0 in
19:43 66.6 °F 60.8 °F 29.9 in WSW 8.1 mph 15.9 mph 82 % 0 in
19:48 66.6 °F 60.8 °F 30 in SSW 7.8 mph 15.2 mph 82 % 0 in
19:51 66.4 °F 60.8 °F 30 in West 9.8 mph 13.4 mph 82 % 0 in
19:56 66.2 °F 60.8 °F 30 in West 13 mph 14.5 mph 82 % 0 in
20:01 66 °F 60.8 °F 29.9 in WSW 12.3 mph 21.9 mph 83 % 0 in
20:06 65.8 °F 60.8 °F 29.9 in WNW 13.2 mph 21.9 mph 83 % 0 in
20:11 65.8 °F 60.8 °F 29.9 in WSW 8.7 mph 17.7 mph 84 % 0 in
20:16 65.7 °F 60.8 °F 29.9 in WSW 13 mph 17.7 mph 84 % 0 in
20:21 65.7 °F 60.8 °F 29.9 in West 10.7 mph 17 mph 84 % 0 in
20:22 65.7 °F 60.8 °F 29.9 in WSW 9.8 mph 17 mph 84 % 0 in
20:27 65.7 °F 60.8 °F 29.9 in WSW 12.3 mph 15.9 mph 84 % 0 in
20:32 65.7 °F 60.8 °F 29.9 in WSW 12.5 mph 17.2 mph 84 % 0 in
20:37 65.5 °F 60.8 °F 29.9 in WSW 9.8 mph 19.7 mph 85 % 0 in
20:42 65.5 °F 60.8 °F 29.9 in SSW 10.5 mph 19.7 mph 85 % 0 in
20:47 65.5 °F 60.8 °F 29.9 in WSW 10.5 mph 14.5 mph 85 % 0 in
20:52 65.5 °F 60.8 °F 29.9 in WSW 10.5 mph 13.2 mph 86 % 0 in
20:57 65.5 °F 60.8 °F 29.9 in WSW 11 mph 15.9 mph 86 % 0 in
21:02 65.3 °F 60.8 °F 29.9 in WSW 11 mph 15.9 mph 86 % 0 in
21:07 65.3 °F 62.6 °F 29.9 in SSW 7.4 mph 15.4 mph 87 % 0 in
21:12 65.1 °F 60.8 °F 29.9 in SW 11 mph 15.4 mph 86 % 0 in
21:17 65.1 °F 60.8 °F 29.9 in SSW 5.8 mph 17 mph 86 % 0 in
21:18 65.1 °F 60.8 °F 29.9 in WSW 12.5 mph 17 mph 86 % 0 in
21:23 64.9 °F 60.8 °F 29.9 in WSW 12.5 mph 17 mph 86 % 0 in
21:28 64.8 °F 60.8 °F 29.9 in WSW 11 mph 14.5 mph 87 % 0 in
21:33 64.8 °F 60.8 °F 29.9 in West 6 mph 14.5 mph 87 % 0 in
21:38 64.8 °F 60.8 °F 29.9 in West 7.2 mph 15.4 mph 87 % 0 in
21:43 64.6 °F 60.8 °F 29.9 in WSW 7.8 mph 15.4 mph 87 % 0 in
21:48 64.6 °F 60.8 °F 29.9 in WSW 8.5 mph 12.5 mph 87 % 0 in
21:53 64.6 °F 60.8 °F 29.9 in WSW 4.9 mph 12.5 mph 87 % 0 in
21:58 64.4 °F 60.8 °F 29.9 in West 8.1 mph 12.5 mph 87 % 0 in
22:03 64.4 °F 60.8 °F 29.9 in WSW 7.8 mph 13.2 mph 88 % 0 in
22:08 64.4 °F 60.8 °F 29.9 in WSW 9.6 mph 17 mph 88 % 0 in
22:09 64.4 °F 60.8 °F 29.9 in West 6.5 mph 17 mph 88 % 0 in
22:14 64.4 °F 60.8 °F 29.9 in WSW 7.4 mph 17 mph 88 % 0 in
22:19 64.2 °F 60.8 °F 29.9 in West 8.1 mph 12.5 mph 89 % 0 in
22:24 64.2 °F 60.8 °F 29.9 in SW 8.5 mph 14.8 mph 89 % 0 in
22:29 64.2 °F 60.8 °F 29.9 in WSW 12.3 mph 14.8 mph 89 % 0 in
22:34 64.2 °F 60.8 °F 29.9 in WSW 10.7 mph 14.8 mph 89 % 0 in
22:39 64.2 °F 60.8 °F 29.9 in WSW 7.8 mph 14.8 mph 89 % 0 in
22:44 64.2 °F 60.8 °F 29.9 in West 8.1 mph 15.4 mph 89 % 0 in
22:49 64.2 °F 60.8 °F 29.9 in SW 8.1 mph 16.8 mph 89 % 0 in
22:54 64.2 °F 60.8 °F 29.9 in West 7.6 mph 16.8 mph 89 % 0 in
22:59 64.2 °F 60.8 °F 29.9 in WSW 11.9 mph 12.3 mph 90 % 0 in
23:04 64 °F 60.8 °F 29.9 in West 8.1 mph 12.5 mph 90 % 0 in
23:10 64 °F 60.8 °F 29.9 in West 6.3 mph 14.3 mph 90 % 0 in
23:13 64 °F 60.8 °F 29.9 in WSW 10.1 mph 14.3 mph 90 % 0 in
23:19 64 °F 60.8 °F 29.9 in WSW 6.5 mph 12.1 mph 90 % 0 in
23:24 64 °F 60.8 °F 29.9 in WSW 5.6 mph 12.5 mph 90 % 0 in
23:29 64 °F 60.8 °F 29.9 in WSW 10.1 mph 14.8 mph 90 % 0 in
23:34 64 °F 60.8 °F 29.9 in WSW 10.1 mph 14.8 mph 90 % 0 in
23:39 64 °F 60.8 °F 29.9 in West 10.5 mph 14.1 mph 90 % 0 in
23:44 64 °F 60.8 °F 29.9 in WSW 10.7 mph 14.1 mph 91 % 0 in
23:49 64 °F 60.8 °F 29.9 in West 8.5 mph 13.2 mph 91 % 0 in
23:54 64 °F 60.8 °F 29.9 in WSW 6 mph 12.1 mph 91 % 0 in
23:59 64 °F 60.8 °F 29.9 in WSW 6.3 mph 13 mph 91 % 0 in
Le Gheer Warneton
Courtoisie de Weather Underground - 2.25 mb

Mise a jour : 18/12/2017 04:10:17
Généré par Cumulus 1.9.4 (1099)